Regional Weather Roundup
Issued by NWS

Home | Current Version | Previous Version | Graphics & Text | Print | Product List | Glossary On
Versions: 1 2 3 4 5 6 7 8 9 10 11 12 13 14 15 16 17 18 19 20 21 22 23 24 25 26 27 28 29 30 31 32 33 34 35 36 37 38 39 40 41 42 43 44 45 46 47 48 49 50
000
ASUS43 KLOT 251308
RWRIL

ILLINOIS REGIONAL WEATHER ROUNDUP
NATIONAL WEATHER SERVICE CHICAGO/ROMEOVILLE IL
800 AM CDT MON JUL 25 2016

NOTE: "FAIR" INDICATES FEW OR NO CLOUDS BELOW 12,000 FEET WITH NO
SIGNIFICANT WEATHER AND/OR OBSTRUCTIONS TO VISIBILITY.

* THESE STATIONS ARE NOT UNDER NWS QUALITY CONTROL. THEY ALSO MAY NOT
  REPORT WEATHER SUCH AS PRECIPITATION OR FOG.

ILZ001-002-007-009-015-016-024-251400-
NORTHWEST ILLINOIS

CITY           SKY/WX    TMP DP  RH WIND       PRES   REMARKS
MOLINE         CLOUDY    76  67  73 N3        30.03S
STERLING*      SUNNY     74  70  87 W3        30.03R
SAVANNA*       SUNNY     74  68  81 NW5       30.03S
$$

ILZ003-004-008-010-011-017-018-251400-
NORTH CENTRAL ILLINOIS

CITY           SKY/WX    TMP DP  RH WIND       PRES   REMARKS
ROCKFORD       MOSUNNY   76  66  71 NW6       30.02S
FREEPORT*      SUNNY     72  67  83 NW5       30.04S
ROCHELLE*      SUNNY     72  68  87 NW3       30.03R
DE KALB*       SUNNY     73  68  85 NW7       30.02R
$$

ILZ005-006-012>014-019>023-251400-
NORTHEAST ILLINOIS

CITY           SKY/WX    TMP DP  RH WIND       PRES   REMARKS
CHICAGO-OHARE  PTSUNNY   77  66  68 NW10      29.98R
CHICAGO-MIDWAY PTSUNNY   79  67  66 NW13      29.96S HX  81
AURORA         MOSUNNY   75  69  81 NW6       30.00S
LANSING*       PTSUNNY   77  69  76 N8        29.97S
JOLIET*        SUNNY     78  71  79 N6        29.98R HX  80
WAUKEGAN       SUNNY     76  66  71 NW5       29.97S
DUPAGE AIRPORT SUNNY     76  66  71 N13       29.99R
KANKAKEE*      CLOUDY    74  71  88 W6        30.00R
WHEELING       SUNNY     76  67  73 NW8       29.99R
MORRIS*        SUNNY     75  70  85 CALM      29.98R
ROMEOVILLE*    MOSUNNY   77  67  71 N10       29.98S
NORTHERLY ISL    N/A     77  63  61 NW10        N/A
$$

LMZ740>746-251400-
SOUTHERN LAKE MICHIGAN

STATION/POSITION SKY/WX   TEMP    WIND        PRES    VSBY  WAVE
                          AIR SEA DIR/SP/G                  HT/PER
                          (F)     (DEG/KT/KT) (MB)    (MI)  (FT/S)
SOUTHERN BUOY              73 72  310/ 12/ 14 1013.8F         2/ 3
WILMETTE HARBOR            67 64  340/  8/  8   N/A           0
HARRISON CRIB              76     300/ 10/ 11   N/A
BURNHAM HARBOR             77     340/  9/ 13   N/A
CALUMET HARBOR             75     300/  6/ 10 1014.1R
BURNS HARBOR               74     260/  5/ 12 1015.2R
MICHIGAN CITY              74     250/  7/  8   N/A
MICHIGAN CITY 6N           75 73  320/  8/ 10   N/A           2/ 4
ST. JOSEPH                 74 74  320/ 10/ 12 1014.1F         3/ 4
$$

ILZ025>027-034>036-040-047-049-050-058-095>099-251400-
WEST-CENTRAL ILLINOIS

CITY           SKY/WX    TMP DP  RH WIND       PRES   REMARKS
QUINCY         CLOUDY    74  71  91 N9        30.00F
GALESBURG*     PTSUNNY   72  68  87 N5        30.04R
MACOMB*        PTSUNNY   73  70  92 N9        30.04S
JACKSONVILLE*  CLOUDY    73  71  92 W7        29.96F
PITTSFIELD*    CLOUDY    74  71  92 W5        29.99F
$$

ILZ028>032-037-038-041>044-048-051>054-059>061-251400-
CENTRAL ILLINOIS

CITY           SKY/WX    TMP DP  RH WIND       PRES   REMARKS
PONTIAC        MOSUNNY   77  74  92 W9        30.01R
BLOOMINGTON    PTSUNNY   75  71  87 NW13      30.01S
DECATUR          N/A     75  71  87 NE6       29.97F
PEORIA         CLOUDY    77  74  90 NW7       30.01R
LACON*         CLOUDY    74  68  81 NW3       30.00S
LINCOLN*       PTSUNNY   74  73  96 NW3       29.97F
SPRINGFIELD    CLOUDY    74  72  93 N9        29.97S
TAYLORVILLE    PTSUNNY   72  71  98 MISG      30.00R
$$

ILZ033-039-045-046-055>057-062-063-251400-
EAST-CENTRAL ILLINOIS

CITY           SKY/WX    TMP DP  RH WIND       PRES   REMARKS
CHAMPAIGN      PTSUNNY   73  70  90 CALM      30.00F
MATTOON        CLOUDY    73  70  90 E7        30.00F
PARIS*         PTSUNNY   74  71  88 CALM      30.02F
$$

ILZ079-100>102-251400-
SOUTHWEST ILLINOIS

CITY           SKY/WX    TMP DP  RH WIND       PRES   REMARKS
ALTON          CLOUDY    73  72  94 SW6       29.99R
BELLEVILLE     CLOUDY    75  75 100 SE7       29.96S
CAHOKIA*       CLOUDY    75  72  90 CALM      29.98R
SPARTA*        CLOUDY    76  73  89 E6        29.99F
$$

ILZ064>066-069>071-074>076-080>082-084>086-088>090-092>094-251400-
SOUTH-CENTRAL ILLINOIS

CITY           SKY/WX    TMP DP  RH WIND       PRES   REMARKS
CARBONDALE     PTSUNNY   81  77  88 CALM      29.99S HX  88
CAIRO*         PTSUNNY   80  78  94 S6        30.00F HX  88
EFFINGHAM*     CLOUDY    75  74  96 E6        30.02R
MARION         PTSUNNY   82  79  89 SE9       30.00S HX  93
MT. VERNON     CLOUDY    77  68  73 CALM      29.99R
CENTRALIA*     CLOUDY    76  74  94 CALM      30.00R
SALEM*         CLOUDY    76  73  87 CALM      30.01R
METROPOLIS*    MOSUNNY   81  78  91 CALM      30.01R HX  88
$$

ILZ067-068-072-073-078-083-087-091-251400-
SOUTHEAST ILLINOIS

CITY           SKY/WX    TMP DP  RH WIND       PRES   REMARKS
LAWRENCEVILLE  PTSUNNY   75  72  90 SE5       29.99S
FLORA*         CLOUDY    76  73  89 NW6       30.02R
FAIRFIELD*     CLOUDY    75  72  88 CALM      29.99R
HARRISBURG*    MOSUNNY   79  75  88 SE3       30.00R HX  82
ROBINSON*      CLOUDY    74  70  89 CALM      30.00F
CARMI*         PTSUNNY   78  73  86 CALM      29.99R HX  80
$$

ABBREVIATIONS USED IN REMARKS
   TC - TEMPERATURE IN CELSIUS
  WCI - WIND CHILL INDEX
   HX - HEAT INDEX
  VSB - VISIBILITY
$$




USA.gov is the U.S. government's official web portal to all federal, state and local government web resources and services.